| time (UTC) | temp F | wind direction | speed MPH | gust MPH | rain 1hr in | rain 24hr in | rain mn in | humidity % | barometer mb |
| 20260901071504 | 76 | 258 | 3.0 | 9.0 | 0.00 | 0.00 | 0.00 | 86 | 1013.3 |
| 20260901071004 | 77 | 255 | 2.0 | 9.0 | 0.00 | 0.00 | 0.00 | 86 | 1013.3 |
| 20260901070504 | 77 | 269 | 2.0 | 7.0 | 0.00 | 0.00 | 0.00 | 86 | 1013.3 |
| 20260901070004 | 77 | 272 | 2.0 | 12.0 | 0.00 | 0.00 | 0.00 | 86 | 1013.2 |
| 20260901070002 | 77 | 271 | 3.0 | 12.0 | 0.00 | 0.00 | 0.00 | 86 | 1013.3 |
| 20260901065506 | 77 | 266 | 2.0 | 12.0 | 0.00 | 0.00 | 0.00 | 86 | 1013.2 |
| 20260901065504 | 77 | 266 | 2.0 | 12.0 | 0.00 | 0.00 | 0.00 | 86 | 1013.2 |
| 20260901065004 | 77 | 264 | 2.0 | 7.0 | 0.00 | 0.00 | 0.00 | 85 | 1013.3 |
| 20260901064504 | 77 | 265 | 2.0 | 7.0 | 0.00 | 0.00 | 0.00 | 85 | 1013.3 |
| 20260901064004 | 77 | 256 | 2.0 | 9.0 | 0.00 | 0.00 | 0.00 | 85 | 1013.2 |
| 20260901063506 | 77 | 251 | 2.0 | 9.0 | 0.00 | 0.00 | 0.00 | 85 | 1013.3 |
| 20260901063504 | 77 | 248 | 2.0 | 9.0 | 0.00 | 0.00 | 0.00 | 85 | 1013.3 |
| 20260901063004 | 77 | 237 | 1.0 | 6.0 | 0.00 | 0.00 | 0.00 | 85 | 1013.4 |
| 20260901062506 | 77 | 223 | 1.0 | 4.0 | 0.00 | 0.00 | 0.00 | 85 | 1013.4 |
| 20260901062503 | 77 | 222 | 1.0 | 4.0 | 0.00 | 0.00 | 0.00 | 85 | 1013.4 |
| 20260901062006 | 77 | 227 | 0.0 | 4.0 | 0.00 | 0.00 | 0.00 | 85 | 1013.5 |
| 20260901062003 | 77 | 237 | 0.0 | 5.0 | 0.00 | 0.00 | 0.00 | 85 | 1013.5 |
| 20260901061506 | 77 | 245 | 0.0 | 5.0 | 0.00 | 0.00 | 0.00 | 85 | 1013.6 |
| 20260901061503 | 77 | 245 | 0.0 | 5.0 | 0.00 | 0.00 | 0.00 | 85 | 1013.5 |
| 20260901061003 | 77 | 244 | 0.0 | 5.0 | 0.00 | 0.00 | 0.00 | 85 | 1013.5 |
| 20260901060506 | 77 | 227 | 0.0 | 4.0 | 0.00 | 0.00 | 0.00 | 85 | 1013.7 |
| 20260901060503 | 77 | 227 | 0.0 | 4.0 | 0.00 | 0.00 | 0.00 | 85 | 1013.6 |
| 20260901060003 | 77 | 227 | 1.0 | 3.0 | 0.00 | 0.00 | 0.00 | 85 | 1013.7 |
| 20260901055503 | 77 | 233 | 1.0 | 4.0 | 0.00 | 0.00 | 0.00 | 85 | 1013.6 |
| 20260901055003 | 77 | 254 | 1.0 | 4.0 | 0.00 | 0.00 | 0.00 | 85 | 1013.7 |
| 20260901054506 | 77 | 252 | 1.0 | 8.0 | 0.00 | 0.00 | 0.00 | 85 | 1013.8 |
| 20260901054503 | 77 | 250 | 1.0 | 8.0 | 0.00 | 0.00 | 0.00 | 85 | 1013.7 |
| 20260901054003 | 76 | 248 | 1.0 | 8.0 | 0.00 | 0.00 | 0.00 | 85 | 1013.7 |
| 20260901053503 | 76 | 249 | 1.0 | 4.0 | 0.00 | 0.00 | 0.00 | 85 | 1013.8 |
| 20260901053003 | 76 | 240 | 2.0 | 5.0 | 0.00 | 0.00 | 0.00 | 85 | 1013.9 |
| 20260901052503 | 76 | 216 | 1.0 | 5.0 | 0.00 | 0.00 | 0.00 | 85 | 1013.8 |
| 20260901052006 | 76 | 210 | 1.0 | 5.0 | 0.00 | 0.00 | 0.00 | 85 | 1013.9 |
| 20260901052003 | 76 | 210 | 1.0 | 5.0 | 0.00 | 0.00 | 0.00 | 85 | 1013.9 |
| 20260901051503 | 76 | 210 | 1.0 | 5.0 | 0.00 | 0.00 | 0.00 | 85 | 1013.7 |
| 20260901051003 | 75 | 200 | 1.0 | 3.0 | 0.00 | 0.00 | 0.00 | 85 | 1013.7 |
| 20260901050503 | 75 | 204 | 1.0 | 5.0 | 0.00 | 0.00 | 0.00 | 85 | 1013.7 |
| 20260901050006 | 75 | 235 | 1.0 | 5.0 | 0.00 | 0.00 | 0.00 | 86 | 1013.6 |
| 20260901050003 | 75 | 252 | 1.0 | 5.0 | 0.00 | 0.00 | 0.00 | 86 | 1013.6 |
| 20260901045503 | 74 | 283 | 1.0 | 4.0 | 0.00 | 0.00 | 0.00 | 86 | 1013.7 |
| 20260901045006 | 74 | 288 | 1.0 | 5.0 | 0.00 | 0.00 | 0.00 | 86 | 1013.8 |
| 20260901045002 | 74 | 283 | 1.0 | 5.0 | 0.00 | 0.00 | 0.00 | 86 | 1013.6 |
| 20260901044505 | 74 | 257 | 1.0 | 5.0 | 0.00 | 0.00 | 0.00 | 86 | 1013.7 |
| 20260901044502 | 74 | 252 | 1.0 | 5.0 | 0.00 | 0.00 | 0.00 | 86 | 1013.7 |
| 20260901044003 | 74 | 216 | 1.0 | 3.0 | 0.00 | 0.00 | 0.00 | 86 | 1013.7 |
| 20260901043503 | 74 | 144 | 0.0 | 1.0 | 0.00 | 0.00 | 0.00 | 86 | 1013.6 |
| 20260901043003 | 74 | 144 | 0.0 | 1.0 | 0.00 | 0.00 | 0.00 | 86 | 1013.6 |
| 20260901042503 | 74 | 144 | 0.0 | 2.0 | 0.00 | 0.00 | 0.00 | 86 | 1013.6 |
| 20260901042003 | 74 | 144 | 0.0 | 2.0 | 0.00 | 0.00 | 0.00 | 86 | 1013.6 |
| 20260901041503 | 73 | 0 | 0.0 | 0.0 | 0.00 | 0.00 | 0.00 | 86 | 1013.6 |
| 20260901041003 | 73 | 0 | 0.0 | 0.0 | 0.00 | 0.00 | 0.00 | 86 | 1013.7 |
| 20260901040503 | 73 | 0 | 0.0 | 0.0 | 0.00 | 0.00 | 0.00 | 86 | 1013.7 |
| 20260901040003 | 73 | 144 | 0.0 | 1.0 | 0.00 | 0.00 | 0.00 | 86 | 1013.9 |
| 20260901035503 | 73 | 144 | 0.0 | 1.0 | 0.00 | 0.00 | 0.00 | 86 | 1013.9 |
| 20260901035003 | 73 | 0 | 0.0 | 0.0 | 0.00 | 0.00 | 0.00 | 86 | 1013.9 |
| 20260901034503 | 73 | 0 | 0.0 | 0.0 | 0.00 | 0.00 | 0.00 | 86 | 1013.9 |
| 20260901034501 | 73 | 0 | 0.0 | 0.0 | 0.00 | 0.00 | 0.00 | 86 | 1014.0 |
| 20260901034004 | 73 | 0 | 0.0 | 0.0 | 0.00 | 0.00 | 0.00 | 86 | 1013.9 |
| 20260901034002 | 73 | 0 | 0.0 | 0.0 | 0.00 | 0.00 | 0.00 | 86 | 1013.9 |
| 20260901033503 | 73 | 0 | 0.0 | 0.0 | 0.00 | 0.00 | 0.00 | 86 | 1013.9 |
| 20260901033501 | 73 | 0 | 0.0 | 0.0 | 0.00 | 0.00 | 0.00 | 86 | 1014.0 |
| 20260901033003 | 73 | 0 | 0.0 | 0.0 | 0.00 | 0.00 | 0.00 | 86 | 1013.8 |
| 20260901033001 | 73 | 0 | 0.0 | 0.0 | 0.00 | 0.00 | 0.00 | 86 | 1013.9 |
| 20260901032503 | 73 | 0 | 0.0 | 0.0 | 0.00 | 0.00 | 0.00 | 86 | 1013.9 |
| 20260901032501 | 73 | 0 | 0.0 | 0.0 | 0.00 | 0.00 | 0.00 | 86 | 1014.0 |
| 20260901032003 | 73 | 0 | 0.0 | 0.0 | 0.00 | 0.00 | 0.00 | 86 | 1014.0 |
| 20260901032001 | 73 | 0 | 0.0 | 0.0 | 0.00 | 0.00 | 0.00 | 85 | 1014.1 |
| 20260901031524 | 74 | 0 | 0.0 | 0.0 | 0.00 | 0.00 | 0.00 | 85 | 1014.0 |
| 20260901031501 | 74 | 0 | 0.0 | 0.0 | 0.00 | 0.00 | 0.00 | 85 | 1014.1 |
| 20260901031006 | 74 | 0 | 0.0 | 0.0 | 0.00 | 0.00 | 0.00 | 85 | 1014.0 |
| 20260901031001 | 74 | 0 | 0.0 | 0.0 | 0.00 | 0.00 | 0.00 | 85 | 1014.0 |
| 20260901030503 | 74 | 0 | 0.0 | 0.0 | 0.00 | 0.00 | 0.00 | 85 | 1014.0 |
| 20260901030501 | 74 | 0 | 0.0 | 0.0 | 0.00 | 0.00 | 0.00 | 85 | 1013.9 |
| 20260901030003 | 74 | 0 | 0.0 | 0.0 | 0.00 | 0.00 | 0.00 | 85 | 1013.9 |
| 20260901030001 | 74 | 0 | 0.0 | 0.0 | 0.00 | 0.00 | 0.00 | 85 | 1013.9 |
| 20260901025503 | 74 | 0 | 0.0 | 0.0 | 0.00 | 0.00 | 0.00 | 85 | 1014.0 |
| 20260901025501 | 74 | 0 | 0.0 | 0.0 | 0.00 | 0.00 | 0.00 | 85 | 1014.0 |
| 20260901025024 | 74 | 144 | 0.0 | 1.0 | 0.00 | 0.00 | 0.00 | 85 | 1014.0 |
| 20260901025001 | 74 | 144 | 0.0 | 1.0 | 0.00 | 0.00 | 0.00 | 85 | 1014.1 |
| 20260901024506 | 74 | 144 | 0.0 | 1.0 | 0.00 | 0.00 | 0.00 | 85 | 1014.1 |
| 20260901024501 | 74 | 144 | 0.0 | 1.0 | 0.00 | 0.00 | 0.00 | 85 | 1014.1 |
| 20260901024003 | 74 | 0 | 0.0 | 0.0 | 0.00 | 0.00 | 0.00 | 85 | 1014.1 |
| 20260901024001 | 74 | 0 | 0.0 | 0.0 | 0.00 | 0.00 | 0.00 | 85 | 1014.1 |
| 20260901023503 | 74 | 144 | 0.0 | 1.0 | 0.00 | 0.00 | 0.00 | 85 | 1014.1 |
| 20260901023501 | 74 | 144 | 0.0 | 1.0 | 0.00 | 0.00 | 0.00 | 85 | 1014.1 |
| 20260901023027 | 74 | 144 | 0.0 | 1.0 | 0.00 | 0.00 | 0.00 | 85 | 1014.2 |
| 20260901023001 | 74 | 144 | 0.0 | 1.0 | 0.00 | 0.00 | 0.00 | 85 | 1014.2 |
| 20260901022503 | 74 | 0 | 0.0 | 0.0 | 0.00 | 0.00 | 0.00 | 84 | 1014.2 |
| 20260901022501 | 74 | 0 | 0.0 | 0.0 | 0.00 | 0.00 | 0.00 | 84 | 1014.2 |
| 20260901022004 | 74 | 144 | 0.0 | 1.0 | 0.00 | 0.00 | 0.00 | 84 | 1014.2 |
| 20260901022001 | 74 | 144 | 0.0 | 1.0 | 0.00 | 0.00 | 0.00 | 84 | 1014.2 |
| 20260901021503 | 75 | 144 | 0.0 | 1.0 | 0.00 | 0.00 | 0.00 | 84 | 1014.2 |
| 20260901021501 | 75 | 144 | 0.0 | 1.0 | 0.00 | 0.00 | 0.00 | 84 | 1014.2 |
| 20260901021003 | 75 | 144 | 0.0 | 1.0 | 0.00 | 0.00 | 0.00 | 84 | 1014.2 |
| 20260901021000 | 75 | 144 | 0.0 | 1.0 | 0.00 | 0.00 | 0.00 | 84 | 1014.1 |
| 20260901020503 | 75 | 144 | 0.0 | 1.0 | 0.00 | 0.00 | 0.00 | 84 | 1014.0 |
| 20260901020500 | 75 | 144 | 0.0 | 1.0 | 0.00 | 0.00 | 0.00 | 84 | 1014.0 |
| 20260901020004 | 75 | 144 | 0.0 | 3.0 | 0.00 | 0.00 | 0.00 | 84 | 1014.0 |
| 20260901020000 | 75 | 144 | 0.0 | 3.0 | 0.00 | 0.00 | 0.00 | 84 | 1014.0 |
| 20260901015506 | 75 | 143 | 0.0 | 3.0 | 0.00 | 0.00 | 0.00 | 84 | 1014.1 |
| 20260901015500 | 75 | 143 | 0.0 | 3.0 | 0.00 | 0.00 | 0.00 | 84 | 1014.2 |
| 20260901015004 | 75 | 142 | 1.0 | 5.0 | 0.00 | 0.00 | 0.00 | 84 | 1014.2 |
| 20260901015000 | 75 | 143 | 1.0 | 5.0 | 0.00 | 0.00 | 0.00 | 84 | 1014.2 |
| 20260901014503 | 75 | 146 | 1.0 | 5.0 | 0.00 | 0.00 | 0.00 | 84 | 1014.2 |
| 20260901014500 | 75 | 146 | 1.0 | 5.0 | 0.00 | 0.00 | 0.00 | 84 | 1014.2 |
| 20260901014004 | 75 | 149 | 1.0 | 5.0 | 0.00 | 0.00 | 0.00 | 84 | 1014.2 |
| 20260901014000 | 75 | 151 | 1.0 | 3.0 | 0.00 | 0.00 | 0.00 | 84 | 1014.3 |
| 20260901013503 | 74 | 150 | 0.0 | 3.0 | 0.00 | 0.00 | 0.00 | 84 | 1014.2 |
| 20260901013500 | 75 | 150 | 0.0 | 3.0 | 0.00 | 0.00 | 0.00 | 84 | 1014.2 |
| 20260901013003 | 74 | 150 | 1.0 | 3.0 | 0.00 | 0.00 | 0.00 | 84 | 1014.3 |
| 20260901013000 | 74 | 150 | 1.0 | 3.0 | 0.00 | 0.00 | 0.00 | 84 | 1014.3 |
| 20260901012525 | 75 | 150 | 1.0 | 3.0 | 0.00 | 0.00 | 0.00 | 84 | 1014.3 |
| 20260901012500 | 74 | 150 | 1.0 | 3.0 | 0.00 | 0.00 | 0.00 | 84 | 1014.2 |
| 20260901012003 | 74 | 150 | 1.0 | 2.0 | 0.00 | 0.00 | 0.00 | 85 | 1014.1 |
| 20260901012000 | 75 | 150 | 1.0 | 3.0 | 0.00 | 0.00 | 0.00 | 85 | 1014.1 |
| 20260901011503 | 75 | 150 | 0.0 | 3.0 | 0.00 | 0.00 | 0.00 | 85 | 1014.1 |
| 20260901011500 | 75 | 150 | 0.0 | 5.0 | 0.00 | 0.00 | 0.00 | 86 | 1014.1 |
| 20260901011004 | 75 | 155 | 0.0 | 5.0 | 0.00 | 0.00 | 0.00 | 86 | 1014.0 |
| 20260901011000 | 75 | 158 | 0.0 | 5.0 | 0.00 | 0.00 | 0.00 | 86 | 1014.0 |
| 20260901010527 | 75 | 164 | 0.0 | 5.0 | 0.00 | 0.00 | 0.00 | 86 | 1013.9 |
| 20260901010500 | 75 | 167 | 1.0 | 4.0 | 0.00 | 0.00 | 0.00 | 86 | 1013.9 |
| 20260901010003 | 75 | 165 | 1.0 | 5.0 | 0.00 | 0.00 | 0.00 | 87 | 1013.7 |
| 20260901010000 | 75 | 164 | 1.0 | 5.0 | 0.00 | 0.00 | 0.00 | 87 | 1013.6 |
| 20260901005503 | 75 | 154 | 1.0 | 5.0 | 0.00 | 0.00 | 0.00 | 87 | 1013.5 |
| 20260901005459 | 75 | 149 | 1.0 | 5.0 | 0.00 | 0.00 | 0.00 | 87 | 1013.5 |
| 20260901005004 | 75 | 134 | 1.0 | 3.0 | 0.00 | 0.00 | 0.00 | 87 | 1013.4 |
| 20260901004959 | 75 | 133 | 1.0 | 3.0 | 0.00 | 0.00 | 0.00 | 87 | 1013.4 |
| 20260901004501 | 75 | 136 | 1.0 | 4.0 | 0.00 | 0.00 | 0.00 | 87 | 1013.4 |
| 20260901004429 | 75 | 138 | 1.0 | 4.0 | 0.00 | 0.00 | 0.00 | 87 | 1013.4 |
| 20260901004004 | 75 | 152 | 1.0 | 4.0 | 0.00 | 0.00 | 0.00 | 87 | 1013.4 |
| 20260901003929 | 75 | 158 | 1.0 | 4.0 | 0.00 | 0.00 | 0.00 | 87 | 1013.5 |
| 20260901003502 | 75 | 162 | 1.0 | 4.0 | 0.00 | 0.00 | 0.00 | 87 | 1013.5 |
| 20260901003429 | 75 | 161 | 1.0 | 4.0 | 0.00 | 0.00 | 0.00 | 87 | 1013.5 |
| 20260901003004 | 75 | 158 | 1.0 | 4.0 | 0.00 | 0.00 | 0.00 | 86 | 1013.6 |
| 20260901002929 | 75 | 157 | 1.0 | 4.0 | 0.00 | 0.00 | 0.00 | 86 | 1013.5 |
| 20260901002501 | 76 | 152 | 1.0 | 4.0 | 0.00 | 0.00 | 0.00 | 87 | 1013.5 |
| 20260901002429 | 76 | 151 | 1.0 | 3.0 | 0.00 | 0.00 | 0.00 | 87 | 1013.6 |
| 20260901002002 | 76 | 153 | 1.0 | 3.0 | 0.00 | 0.00 | 0.00 | 86 | 1013.6 |
| 20260901001929 | 76 | 153 | 1.0 | 3.0 | 0.00 | 0.00 | 0.00 | 86 | 1013.6 |
| 20260901001501 | 76 | 153 | 1.0 | 3.0 | 0.00 | 0.00 | 0.00 | 86 | 1013.6 |
| 20260901001429 | 76 | 153 | 1.0 | 2.0 | 0.00 | 0.00 | 0.00 | 86 | 1013.6 |
| 20260901001022 | 77 | 153 | 1.0 | 5.0 | 0.00 | 0.00 | 0.00 | 85 | 1013.6 |
| 20260901000929 | 77 | 153 | 1.0 | 5.0 | 0.00 | 0.00 | 0.00 | 85 | 1013.6 |
| 20260901000504 | 77 | 153 | 1.0 | 5.0 | 0.00 | 0.00 | 0.00 | 84 | 1013.7 |
| 20260901000429 | 77 | 153 | 1.0 | 5.0 | 0.00 | 0.00 | 0.00 | 84 | 1013.7 |
| 20260901000002 | 77 | 154 | 1.0 | 5.0 | 0.00 | 0.00 | 0.00 | 83 | 1013.6 |
| 20260831235929 | 77 | 154 | 1.0 | 5.0 | 0.00 | 0.00 | 0.00 | 83 | 1013.6 |
| 20260831235501 | 78 | 155 | 1.0 | 5.0 | 0.00 | 0.00 | 0.00 | 83 | 1013.6 |
| 20260831235429 | 78 | 155 | 1.0 | 5.0 | 0.00 | 0.00 | 0.00 | 82 | 1013.6 |
| 20260831235001 | 78 | 155 | 1.0 | 3.0 | 0.00 | 0.00 | 0.00 | 81 | 1013.5 |
| 20260831234929 | 78 | 155 | 1.0 | 3.0 | 0.00 | 0.00 | 0.00 | 81 | 1013.5 |
| 20260831234502 | 78 | 155 | 1.0 | 3.0 | 0.00 | 0.00 | 0.00 | 80 | 1013.7 |
| 20260831234429 | 78 | 155 | 1.0 | 3.0 | 0.00 | 0.00 | 0.00 | 80 | 1013.7 |
| 20260831234001 | 78 | 155 | 1.0 | 3.0 | 0.00 | 0.00 | 0.00 | 80 | 1013.7 |
| 20260831233929 | 79 | 155 | 1.0 | 3.0 | 0.00 | 0.00 | 0.00 | 80 | 1013.7 |
| 20260831233501 | 79 | 155 | 1.0 | 3.0 | 0.00 | 0.00 | 0.00 | 79 | 1013.9 |
| 20260831233429 | 79 | 155 | 1.0 | 3.0 | 0.00 | 0.00 | 0.00 | 79 | 1014.0 |
| 20260831233001 | 79 | 155 | 1.0 | 3.0 | 0.00 | 0.00 | 0.00 | 79 | 1013.9 |
| 20260831232928 | 79 | 155 | 1.0 | 3.0 | 0.00 | 0.00 | 0.00 | 79 | 1013.9 |
| 20260831232525 | 79 | 155 | 1.0 | 3.0 | 0.00 | 0.00 | 0.00 | 78 | 1013.9 |
| 20260831232428 | 79 | 155 | 1.0 | 5.0 | 0.00 | 0.00 | 0.00 | 78 | 1013.9 |
| 20260831232002 | 79 | 155 | 1.0 | 5.0 | 0.00 | 0.00 | 0.00 | 78 | 1014.0 |
| 20260831231928 | 79 | 155 | 1.0 | 5.0 | 0.00 | 0.00 | 0.00 | 78 | 1014.1 |
| 20260831231502 | 79 | 163 | 1.0 | 5.0 | 0.00 | 0.00 | 0.00 | 78 | 1014.0 |
| 20260831231428 | 79 | 166 | 1.0 | 4.0 | 0.00 | 0.00 | 0.00 | 78 | 1014.1 |
| 20260831231025 | 79 | 180 | 2.0 | 5.0 | 0.00 | 0.00 | 0.00 | 78 | 1014.2 |
| 20260831230928 | 79 | 184 | 2.0 | 5.0 | 0.00 | 0.00 | 0.00 | 78 | 1014.2 |
| 20260831230501 | 79 | 187 | 2.0 | 5.0 | 0.00 | 0.00 | 0.00 | 78 | 1014.2 |
| 20260831230428 | 79 | 186 | 2.0 | 5.0 | 0.00 | 0.00 | 0.00 | 77 | 1014.2 |
| 20260831230001 | 79 | 180 | 2.0 | 4.0 | 0.00 | 0.00 | 0.00 | 77 | 1014.4 |
| 20260831225928 | 79 | 179 | 2.0 | 4.0 | 0.00 | 0.00 | 0.00 | 77 | 1014.4 |
| 20260831225505 | 79 | 175 | 2.0 | 4.0 | 0.00 | 0.00 | 0.00 | 77 | 1014.3 |
| 20260831225428 | 79 | 176 | 2.0 | 5.0 | 0.00 | 0.00 | 0.00 | 77 | 1014.3 |
| 20260831225001 | 79 | 201 | 2.0 | 5.0 | 0.00 | 0.00 | 0.00 | 77 | 1014.3 |
| 20260831224928 | 79 | 208 | 2.0 | 5.0 | 0.00 | 0.00 | 0.00 | 77 | 1014.3 |
| 20260831224501 | 79 | 218 | 2.0 | 5.0 | 0.00 | 0.00 | 0.00 | 77 | 1014.4 |
| 20260831224428 | 79 | 222 | 2.0 | 5.0 | 0.00 | 0.00 | 0.00 | 77 | 1014.4 |
| 20260831224023 | 79 | 214 | 2.0 | 6.0 | 0.00 | 0.00 | 0.00 | 77 | 1014.7 |
| 20260831223928 | 79 | 212 | 2.0 | 6.0 | 0.00 | 0.00 | 0.00 | 77 | 1014.6 |
| 20260831223502 | 78 | 239 | 2.0 | 7.0 | 0.00 | 0.00 | 0.00 | 78 | 1014.4 |
| 20260831223428 | 78 | 233 | 3.0 | 7.0 | 0.00 | 0.00 | 0.00 | 78 | 1014.4 |
| 20260831223004 | 78 | 248 | 2.0 | 7.0 | 0.00 | 0.00 | 0.00 | 79 | 1014.8 |
| 20260831222927 | 78 | 251 | 3.0 | 7.0 | 0.00 | 0.00 | 0.00 | 79 | 1014.8 |
| 20260831222501 | 78 | 244 | 3.0 | 8.0 | 0.00 | 0.00 | 0.00 | 80 | 1015.0 |
| 20260831222428 | 78 | 243 | 2.0 | 8.0 | 0.00 | 0.00 | 0.00 | 80 | 1014.9 |
| 20260831222002 | 78 | 226 | 3.0 | 8.0 | 0.00 | 0.00 | 0.00 | 81 | 1014.7 |
| 20260831221927 | 78 | 213 | 2.0 | 8.0 | 0.00 | 0.00 | 0.00 | 81 | 1014.4 |
| 20260831221501 | 77 | 186 | 2.0 | 7.0 | 0.00 | 0.00 | 0.00 | 82 | 1014.2 |
| 20260831221427 | 77 | 178 | 2.0 | 5.0 | 0.00 | 0.00 | 0.00 | 82 | 1014.1 |
| 20260831221001 | 77 | 166 | 1.0 | 5.0 | 0.00 | 0.00 | 0.00 | 82 | 1014.2 |
| 20260831220927 | 77 | 167 | 1.0 | 5.0 | 0.00 | 0.00 | 0.00 | 82 | 1014.1 |
| 20260831220502 | 77 | 172 | 2.0 | 5.0 | 0.00 | 0.00 | 0.00 | 82 | 1014.0 |
| 20260831220427 | 77 | 174 | 2.0 | 5.0 | 0.00 | 0.00 | 0.00 | 82 | 1014.0 |
| 20260831220001 | 77 | 173 | 2.0 | 5.0 | 0.00 | 0.00 | 0.00 | 82 | 1014.1 |
| 20260831215927 | 77 | 172 | 2.0 | 5.0 | 0.00 | 0.00 | 0.00 | 82 | 1014.3 |
| 20260831215501 | 77 | 172 | 2.0 | 6.0 | 0.00 | 0.00 | 0.00 | 83 | 1014.4 |
| 20260831215427 | 76 | 172 | 2.0 | 11.0 | 0.00 | 0.00 | 0.00 | 83 | 1014.4 |
| 20260831215002 | 76 | 169 | 3.0 | 11.0 | 0.00 | 0.00 | 0.00 | 83 | 1014.5 |
| 20260831214927 | 76 | 168 | 3.0 | 11.0 | 0.00 | 0.00 | 0.00 | 82 | 1014.5 |
| 20260831214525 | 76 | 166 | 3.0 | 11.0 | 0.00 | 0.00 | 0.00 | 82 | 1014.5 |
| 20260831214427 | 76 | 164 | 3.0 | 6.0 | 0.00 | 0.00 | 0.00 | 82 | 1014.5 |
| 20260831214001 | 76 | 164 | 2.0 | 6.0 | 0.00 | 0.00 | 0.00 | 83 | 1014.5 |
| 20260831213927 | 76 | 167 | 2.0 | 6.0 | 0.00 | 0.00 | 0.00 | 83 | 1014.6 |
| 20260831213526 | 76 | 167 | 2.0 | 6.0 | 0.00 | 0.00 | 0.00 | 84 | 1014.6 |
| 20260831213427 | 76 | 167 | 2.0 | 6.0 | 0.00 | 0.00 | 0.00 | 84 | 1014.6 |
| 20260831213002 | 76 | 160 | 2.0 | 6.0 | 0.00 | 0.00 | 0.00 | 84 | 1014.9 |
| 20260831212927 | 76 | 152 | 2.0 | 6.0 | 0.00 | 0.00 | 0.00 | 84 | 1014.9 |
| 20260831212522 | 76 | 142 | 2.0 | 6.0 | 0.00 | 0.00 | 0.00 | 84 | 1014.9 |
| 20260831212427 | 76 | 141 | 2.0 | 6.0 | 0.00 | 0.00 | 0.00 | 84 | 1014.9 |
| 20260831212001 | 76 | 139 | 2.0 | 5.0 | 0.00 | 0.00 | 0.00 | 84 | 1015.0 |
| 20260831211927 | 77 | 143 | 2.0 | 5.0 | 0.00 | 0.00 | 0.00 | 84 | 1015.0 |
| 20260831211502 | 77 | 147 | 2.0 | 5.0 | 0.00 | 0.00 | 0.00 | 83 | 1015.0 |
| 20260831211427 | 77 | 146 | 2.0 | 5.0 | 0.00 | 0.00 | 0.00 | 83 | 1015.0 |
| 20260831211002 | 77 | 146 | 2.0 | 5.0 | 0.00 | 0.00 | 0.00 | 83 | 1015.1 |
| 20260831210926 | 77 | 147 | 2.0 | 5.0 | 0.00 | 0.00 | 0.00 | 83 | 1015.1 |
| 20260831210502 | 77 | 149 | 1.0 | 4.0 | 0.00 | 0.00 | 0.00 | 83 | 1015.2 |
| 20260831210426 | 77 | 151 | 1.0 | 5.0 | 0.00 | 0.00 | 0.00 | 83 | 1015.2 |
| 20260831210001 | 77 | 150 | 1.0 | 5.0 | 0.00 | 0.00 | 0.00 | 83 | 1015.3 |
| 20260831205926 | 77 | 148 | 1.0 | 5.0 | 0.00 | 0.00 | 0.00 | 83 | 1015.3 |
| 20260831205523 | 77 | 146 | 1.0 | 5.0 | 0.00 | 0.00 | 0.00 | 84 | 1015.4 |
| 20260831205426 | 77 | 144 | 1.0 | 4.0 | 0.00 | 0.00 | 0.00 | 84 | 1015.4 |
| 20260831205023 | 77 | 140 | 1.0 | 4.0 | 0.00 | 0.00 | 0.00 | 84 | 1015.4 |
| 20260831204926 | 77 | 141 | 1.0 | 4.0 | 0.00 | 0.00 | 0.00 | 84 | 1015.4 |
| 20260831204502 | 77 | 142 | 1.0 | 4.0 | 0.00 | 0.00 | 0.00 | 84 | 1015.4 |
| 20260831204426 | 77 | 142 | 1.0 | 4.0 | 0.00 | 0.00 | 0.00 | 84 | 1015.4 |
| 20260831204025 | 77 | 144 | 0.0 | 3.0 | 0.00 | 0.00 | 0.00 | 84 | 1015.4 |
| 20260831203926 | 77 | 144 | 0.0 | 2.0 | 0.00 | 0.00 | 0.00 | 84 | 1015.4 |
| 20260831203501 | 77 | 90 | 0.0 | 2.0 | 0.00 | 0.00 | 0.00 | 85 | 1015.5 |
| 20260831203426 | 77 | 90 | 0.0 | 2.0 | 0.00 | 0.00 | 0.00 | 85 | 1015.5 |
| 20260831203023 | 77 | 90 | 1.0 | 3.0 | 0.00 | 0.00 | 0.00 | 86 | 1015.5 |
| 20260831202926 | 77 | 90 | 1.0 | 3.0 | 0.00 | 0.00 | 0.00 | 86 | 1015.4 |
| 20260831202502 | 77 | 90 | 1.0 | 3.0 | 0.00 | 0.00 | 0.00 | 87 | 1015.5 |
| 20260831202426 | 77 | 90 | 1.0 | 3.0 | 0.00 | 0.00 | 0.00 | 86 | 1015.5 |
| 20260831202001 | 77 | 90 | 2.0 | 3.0 | 0.00 | 0.00 | 0.00 | 87 | 1015.5 |
| 20260831201926 | 77 | 89 | 2.0 | 3.0 | 0.00 | 0.00 | 0.00 | 87 | 1015.6 |
| 20260831201502 | 77 | 92 | 2.0 | 4.0 | 0.00 | 0.00 | 0.00 | 86 | 1015.7 |
| 20260831201426 | 76 | 94 | 2.0 | 4.0 | 0.00 | 0.00 | 0.00 | 86 | 1015.7 |
| 20260831201005 | 76 | 98 | 2.0 | 4.0 | 0.00 | 0.00 | 0.00 | 86 | 1015.8 |
| 20260831200926 | 76 | 100 | 2.0 | 4.0 | 0.00 | 0.00 | 0.00 | 86 | 1015.8 |
| 20260831200504 | 76 | 104 | 2.0 | 4.0 | 0.00 | 0.00 | 0.00 | 87 | 1015.9 |
| 20260831200426 | 76 | 104 | 2.0 | 4.0 | 0.00 | 0.00 | 0.00 | 87 | 1015.9 |
| 20260831200002 | 76 | 102 | 2.0 | 4.0 | 0.00 | 0.00 | 0.00 | 86 | 1016.1 |
| 20260831195925 | 76 | 101 | 2.0 | 4.0 | 0.00 | 0.00 | 0.00 | 86 | 1016.1 |
| 20260831195501 | 76 | 98 | 2.0 | 4.0 | 0.00 | 0.00 | 0.00 | 86 | 1016.1 |
| 20260831195425 | 76 | 98 | 2.0 | 4.0 | 0.00 | 0.00 | 0.00 | 86 | 1016.1 |
| 20260831195002 | 76 | 99 | 2.0 | 4.0 | 0.00 | 0.00 | 0.00 | 86 | 1016.1 |
| 20260831194925 | 77 | 100 | 2.0 | 4.0 | 0.00 | 0.00 | 0.00 | 86 | 1016.1 |
| 20260831194502 | 77 | 100 | 2.0 | 3.0 | 0.00 | 0.00 | 0.00 | 86 | 1016.1 |
| 20260831194425 | 77 | 101 | 2.0 | 3.0 | 0.00 | 0.00 | 0.00 | 86 | 1016.1 |
| 20260831194005 | 77 | 101 | 2.0 | 3.0 | 0.00 | 0.00 | 0.00 | 86 | 1016.2 |
| 20260831193925 | 77 | 101 | 2.0 | 4.0 | 0.00 | 0.00 | 0.00 | 86 | 1016.2 |
| 20260831193502 | 77 | 101 | 2.0 | 4.0 | 0.00 | 0.00 | 0.00 | 85 | 1016.1 |
| 20260831193425 | 77 | 101 | 2.0 | 4.0 | 0.00 | 0.00 | 0.00 | 85 | 1016.1 |
| 20260831193001 | 77 | 101 | 2.0 | 4.0 | 0.00 | 0.00 | 0.00 | 85 | 1016.2 |
| 20260831192925 | 77 | 101 | 2.0 | 3.0 | 0.00 | 0.00 | 0.00 | 84 | 1016.0 |
| 20260831192501 | 78 | 99 | 2.0 | 4.0 | 0.00 | 0.00 | 0.00 | 84 | 1016.2 |
| 20260831192425 | 78 | 98 | 2.0 | 4.0 | 0.00 | 0.00 | 0.00 | 84 | 1016.1 |
| 20260831192002 | 78 | 96 | 2.0 | 4.0 | 0.00 | 0.00 | 0.00 | 83 | 1016.2 |
| 20260831191925 | 78 | 95 | 2.0 | 4.0 | 0.00 | 0.00 | 0.00 | 83 | 1016.1 |
| 20260831191505 | 78 | 93 | 1.0 | 4.0 | 0.00 | 0.00 | 0.00 | 83 | 1016.2 |
| 20260831191425 | 78 | 93 | 1.0 | 4.0 | 0.00 | 0.00 | 0.00 | 83 | 1016.1 |
| 20260831191002 | 78 | 89 | 1.0 | 7.0 | 0.00 | 0.00 | 0.00 | 84 | 1016.1 |
| 20260831190925 | 78 | 89 | 1.0 | 7.0 | 0.00 | 0.00 | 0.00 | 84 | 1016.1 |
| 20260831190501 | 78 | 84 | 2.0 | 7.0 | 0.00 | 0.00 | 0.00 | 83 | 1016.1 |
| 20260831190425 | 78 | 80 | 2.0 | 7.0 | 0.00 | 0.00 | 0.00 | 83 | 1016.2 |
| 20260831190026 | 78 | 64 | 1.0 | 5.0 | 0.00 | 0.00 | 0.00 | 82 | 1016.5 |
| 20260831185925 | 78 | 63 | 2.0 | 5.0 | 0.00 | 0.00 | 0.00 | 81 | 1016.5 |
| 20260831185502 | 79 | 57 | 2.0 | 6.0 | 0.00 | 0.00 | 0.00 | 80 | 1016.5 |
| 20260831185425 | 79 | 56 | 2.0 | 6.0 | 0.00 | 0.00 | 0.00 | 80 | 1016.4 |
| 20260831185023 | 79 | 53 | 2.0 | 6.0 | 0.00 | 0.00 | 0.00 | 79 | 1016.3 |
| 20260831184924 | 79 | 51 | 2.0 | 6.0 | 0.00 | 0.00 | 0.00 | 79 | 1016.2 |
| 20260831184522 | 80 | 47 | 2.0 | 4.0 | 0.00 | 0.00 | 0.00 | 79 | 1016.2 |
| 20260831184424 | 80 | 45 | 2.0 | 4.0 | 0.00 | 0.00 | 0.00 | 79 | 1016.2 |
| 20260831184002 | 80 | 41 | 1.0 | 3.0 | 0.00 | 0.00 | 0.00 | 78 | 1016.0 |
| 20260831183924 | 80 | 40 | 1.0 | 3.0 | 0.00 | 0.00 | 0.00 | 77 | 1016.0 |
| 20260831183502 | 80 | 40 | 1.0 | 3.0 | 0.00 | 0.00 | 0.00 | 76 | 1016.0 |
| 20260831183424 | 80 | 40 | 1.0 | 3.0 | 0.00 | 0.00 | 0.00 | 75 | 1016.0 |
| 20260831183001 | 80 | 24 | 1.0 | 3.0 | 0.00 | 0.00 | 0.00 | 76 | 1015.9 |
| 20260831182924 | 80 | 23 | 1.0 | 3.0 | 0.00 | 0.00 | 0.00 | 76 | 1015.9 |
| 20260831182501 | 81 | 355 | 1.0 | 3.0 | 0.00 | 0.00 | 0.00 | 75 | 1016.0 |
| 20260831182424 | 81 | 325 | 1.0 | 3.0 | 0.00 | 0.00 | 0.00 | 75 | 1016.0 |
| 20260831182023 | 81 | 279 | 0.0 | 3.0 | 0.00 | 0.00 | 0.00 | 76 | 1016.0 |
| 20260831181924 | 81 | 279 | 0.0 | 3.0 | 0.00 | 0.00 | 0.00 | 76 | 1016.0 |
| 20260831181523 | 80 | 279 | 0.0 | 3.0 | 0.00 | 0.00 | 0.00 | 76 | 1015.8 |
| 20260831181424 | 80 | 279 | 0.0 | 3.0 | 0.00 | 0.00 | 0.00 | 76 | 1015.7 |
| 20260831181002 | 80 | 279 | 1.0 | 2.0 | 0.00 | 0.00 | 0.00 | 75 | 1015.7 |
| 20260831180924 | 80 | 279 | 1.0 | 2.0 | 0.00 | 0.00 | 0.00 | 75 | 1015.6 |
| 20260831180501 | 80 | 279 | 1.0 | 2.0 | 0.00 | 0.00 | 0.00 | 74 | 1015.6 |
| 20260831180424 | 80 | 279 | 1.0 | 2.0 | 0.00 | 0.00 | 0.00 | 75 | 1015.7 |
| 20260831180002 | 80 | 279 | 0.0 | 3.0 | 0.00 | 0.00 | 0.00 | 75 | 1015.7 |
| 20260831175924 | 80 | 279 | 1.0 | 3.0 | 0.00 | 0.00 | 0.00 | 75 | 1015.9 |
| 20260831175501 | 80 | 279 | 1.0 | 3.0 | 0.00 | 0.00 | 0.00 | 75 | 1016.0 |
| 20260831175424 | 80 | 279 | 1.0 | 3.0 | 0.00 | 0.00 | 0.00 | 74 | 1016.0 |
| 20260831175023 | 80 | 279 | 1.0 | 3.0 | 0.00 | 0.00 | 0.00 | 75 | 1016.1 |
| 20260831174923 | 80 | 279 | 1.0 | 3.0 | 0.00 | 0.00 | 0.00 | 74 | 1016.0 |
| 20260831174502 | 80 | 279 | 1.0 | 3.0 | 0.00 | 0.00 | 0.00 | 77 | 1016.0 |
| 20260831174424 | 80 | 279 | 1.0 | 3.0 | 0.00 | 0.00 | 0.00 | 77 | 1016.1 |
| 20260831174004 | 79 | 279 | 1.0 | 3.0 | 0.00 | 0.00 | 0.00 | 78 | 1016.0 |
| 20260831173923 | 79 | 279 | 1.0 | 3.0 | 0.00 | 0.00 | 0.00 | 78 | 1015.9 |
| 20260831173502 | 79 | 279 | 1.0 | 3.0 | 0.00 | 0.00 | 0.00 | 79 | 1016.0 |
| 20260831173423 | 79 | 279 | 0.0 | 3.0 | 0.00 | 0.00 | 0.00 | 79 | 1016.0 |
| 20260831173023 | 79 | 279 | 0.0 | 1.0 | 0.00 | 0.00 | 0.00 | 79 | 1016.0 |
| 20260831172923 | 79 | 0 | 0.0 | 0.0 | 0.00 | 0.00 | 0.00 | 80 | 1016.0 |
| 20260831172522 | 79 | 0 | 0.0 | 0.0 | 0.00 | 0.00 | 0.00 | 78 | 1016.0 |
| 20260831172423 | 79 | 279 | 0.0 | 1.0 | 0.00 | 0.00 | 0.00 | 78 | 1015.9 |
| 20260831172005 | 79 | 281 | 1.0 | 4.0 | 0.00 | 0.00 | 0.00 | 78 | 1015.9 |
| 20260831171923 | 79 | 277 | 1.0 | 4.0 | 0.00 | 0.00 | 0.00 | 77 | 1015.9 |
| 20260831171502 | 80 | 269 | 2.0 | 4.0 | 0.00 | 0.00 | 0.00 | 76 | 1016.2 |
| 20260831171423 | 80 | 268 | 2.0 | 4.0 | 0.00 | 0.00 | 0.00 | 76 | 1016.2 |
| 20260831171001 | 80 | 256 | 2.0 | 5.0 | 0.00 | 0.00 | 0.00 | 76 | 1016.4 |
| 20260831170923 | 80 | 256 | 2.0 | 5.0 | 0.00 | 0.00 | 0.00 | 75 | 1016.4 |
| 20260831170502 | 80 | 263 | 3.0 | 9.0 | 0.00 | 0.00 | 0.00 | 75 | 1016.7 |
| 20260831170423 | 80 | 268 | 4.0 | 9.0 | 0.00 | 0.01 | 0.00 | 75 | 1016.7 |
| 20260831170023 | 81 | 277 | 4.0 | 9.0 | 0.00 | 0.01 | 0.00 | 74 | 1017.0 |
| 20260831165923 | 81 | 282 | 4.0 | 9.0 | 0.00 | 0.01 | 0.00 | 74 | 1017.0 |
| 20260831165522 | 81 | 290 | 4.0 | 9.0 | 0.00 | 0.01 | 0.00 | 73 | 1017.2 |
| 20260831165423 | 81 | 287 | 4.0 | 10.0 | 0.00 | 0.01 | 0.00 | 73 | 1017.3 |
| 20260831165003 | 82 | 285 | 5.0 | 11.0 | 0.00 | 0.02 | 0.00 | 72 | 1017.3 |
| 20260831164923 | 82 | 284 | 6.0 | 11.0 | 0.00 | 0.02 | 0.00 | 71 | 1017.3 |
| 20260831164502 | 82 | 280 | 6.0 | 11.0 | 0.00 | 0.02 | 0.00 | 70 | 1017.4 |
| 20260831164423 | 82 | 281 | 6.0 | 11.0 | 0.00 | 0.02 | 0.00 | 70 | 1017.3 |
| 20260831164001 | 82 | 280 | 5.0 | 10.0 | 0.00 | 0.02 | 0.00 | 70 | 1017.3 |
| 20260831163923 | 82 | 280 | 4.0 | 10.0 | 0.00 | 0.02 | 0.00 | 70 | 1017.3 |
| 20260831163502 | 82 | 286 | 3.0 | 10.0 | 0.00 | 0.03 | 0.00 | 71 | 1017.3 |
| 20260831163423 | 82 | 289 | 3.0 | 10.0 | 0.00 | 0.03 | 0.00 | 71 | 1017.1 |
| 20260831163023 | 82 | 283 | 3.0 | 8.0 | 0.00 | 0.04 | 0.00 | 72 | 1017.2 |
| 20260831162922 | 82 | 280 | 3.0 | 8.0 | 0.00 | 0.04 | 0.00 | 72 | 1017.1 |
| 20260831162505 | 82 | 269 | 3.0 | 8.0 | 0.00 | 0.05 | 0.00 | 72 | 1017.2 |
| 20260831162422 | 82 | 266 | 3.0 | 8.0 | 0.00 | 0.05 | 0.00 | 72 | 1017.1 |
| 20260831162002 | 81 | 267 | 3.0 | 8.0 | 0.00 | 0.06 | 0.00 | 73 | 1017.1 |
| 20260831161922 | 81 | 267 | 3.0 | 8.0 | 0.00 | 0.06 | 0.00 | 73 | 1017.1 |
| 20260831161502 | 81 | 266 | 3.0 | 8.0 | 0.00 | 0.06 | 0.00 | 74 | 1017.1 |
| 20260831161422 | 81 | 265 | 4.0 | 8.0 | 0.00 | 0.06 | 0.00 | 73 | 1017.1 |
| 20260831161002 | 80 | 264 | 4.0 | 10.0 | 0.00 | 0.06 | 0.00 | 74 | 1017.1 |
| 20260831160922 | 80 | 263 | 5.0 | 11.0 | 0.00 | 0.06 | 0.00 | 74 | 1017.1 |
| 20260831160502 | 80 | 263 | 4.0 | 11.0 | 0.00 | 0.06 | 0.00 | 75 | 1017.2 |
| 20260831160422 | 80 | 262 | 4.0 | 11.0 | 0.00 | 0.06 | 0.00 | 76 | 1017.2 |
| 20260831160002 | 79 | 263 | 3.0 | 11.0 | 0.00 | 0.06 | 0.00 | 77 | 1017.1 |
| 20260831155922 | 79 | 265 | 3.0 | 8.0 | 0.00 | 0.06 | 0.00 | 77 | 1017.1 |
| 20260831155504 | 79 | 263 | 3.0 | 8.0 | 0.00 | 0.06 | 0.00 | 77 | 1017.2 |
| 20260831155422 | 79 | 266 | 3.0 | 8.0 | 0.00 | 0.06 | 0.00 | 77 | 1017.2 |
| 20260831155002 | 79 | 264 | 3.0 | 8.0 | 0.00 | 0.06 | 0.00 | 77 | 1017.1 |
| 20260831154922 | 79 | 263 | 3.0 | 8.0 | 0.00 | 0.06 | 0.00 | 77 | 1017.1 |
| 20260831154502 | 79 | 265 | 2.0 | 6.0 | 0.00 | 0.07 | 0.00 | 78 | 1017.1 |
| 20260831154422 | 78 | 265 | 2.0 | 7.0 | 0.00 | 0.07 | 0.00 | 78 | 1017.1 |
| 20260831154026 | 78 | 259 | 3.0 | 12.0 | 0.00 | 0.08 | 0.00 | 78 | 1016.9 |
| 20260831153922 | 78 | 259 | 3.0 | 12.0 | 0.00 | 0.08 | 0.00 | 78 | 1016.9 |
| 20260831153502 | 78 | 260 | 3.0 | 12.0 | 0.00 | 0.08 | 0.00 | 78 | 1017.0 |
| 20260831153422 | 78 | 259 | 2.0 | 12.0 | 0.00 | 0.08 | 0.00 | 78 | 1017.0 |
| 20260831153002 | 78 | 265 | 2.0 | 8.0 | 0.00 | 0.08 | 0.00 | 78 | 1016.9 |
| 20260831152922 | 78 | 265 | 1.0 | 6.0 | 0.00 | 0.08 | 0.00 | 78 | 1016.8 |
| 20260831152505 | 78 | 260 | 1.0 | 6.0 | 0.00 | 0.08 | 0.00 | 79 | 1016.7 |
| 20260831152421 | 78 | 259 | 1.0 | 6.0 | 0.00 | 0.09 | 0.00 | 79 | 1016.7 |
| 20260831152002 | 78 | 240 | 1.0 | 5.0 | 0.00 | 0.09 | 0.00 | 80 | 1016.6 |
| 20260831151921 | 78 | 238 | 1.0 | 5.0 | 0.00 | 0.09 | 0.00 | 80 | 1016.7 |
| 20260831151502 | 77 | 234 | 1.0 | 5.0 | 0.00 | 0.09 | 0.00 | 80 | 1016.6 |
| 20260831151421 | 77 | 227 | 1.0 | 5.0 | 0.00 | 0.09 | 0.00 | 80 | 1016.6 |
| 20260831151023 | 77 | 211 | 1.0 | 5.0 | 0.00 | 0.09 | 0.00 | 80 | 1016.6 |
| 20260831150921 | 77 | 195 | 1.0 | 4.0 | 0.00 | 0.09 | 0.00 | 81 | 1016.6 |
| 20260831150523 | 77 | 185 | 0.0 | 3.0 | 0.00 | 0.09 | 0.00 | 81 | 1016.6 |
| 20260831150421 | 77 | 189 | 0.0 | 3.0 | 0.00 | 0.09 | 0.00 | 81 | 1016.6 |
| 20260831150026 | 77 | 201 | 0.0 | 3.0 | 0.00 | 0.10 | 0.00 | 82 | 1016.6 |
| 20260831145921 | 77 | 217 | 0.0 | 2.0 | 0.00 | 0.10 | 0.00 | 82 | 1016.6 |
| 20260831145502 | 76 | 217 | 0.0 | 2.0 | 0.00 | 0.10 | 0.00 | 83 | 1016.6 |
| 20260831145421 | 76 | 217 | 0.0 | 2.0 | 0.00 | 0.10 | 0.00 | 83 | 1016.6 |
| 20260831145002 | 76 | 217 | 0.0 | 2.0 | 0.00 | 0.10 | 0.00 | 83 | 1016.6 |
| 20260831144921 | 76 | 217 | 0.0 | 2.0 | 0.00 | 0.10 | 0.00 | 83 | 1016.6 |
| 20260831144523 | 76 | 217 | 0.0 | 3.0 | 0.00 | 0.10 | 0.00 | 83 | 1016.6 |
| 20260831144421 | 76 | 217 | 0.0 | 3.0 | 0.00 | 0.11 | 0.00 | 82 | 1016.6 |
| 20260831144002 | 76 | 217 | 1.0 | 4.0 | 0.00 | 0.11 | 0.00 | 82 | 1016.6 |
| 20260831143921 | 76 | 217 | 1.0 | 4.0 | 0.00 | 0.11 | 0.00 | 82 | 1016.6 |
| 20260831143524 | 76 | 217 | 1.0 | 4.0 | 0.00 | 0.11 | 0.00 | 82 | 1016.5 |
| 20260831143421 | 76 | 217 | 1.0 | 4.0 | 0.00 | 0.11 | 0.00 | 82 | 1016.6 |
| 20260831143002 | 76 | 217 | 1.0 | 3.0 | 0.00 | 0.11 | 0.00 | 82 | 1016.4 |
| 20260831142921 | 76 | 217 | 1.0 | 3.0 | 0.00 | 0.11 | 0.00 | 82 | 1016.4 |
| 20260831142502 | 76 | 227 | 1.0 | 4.0 | 0.00 | 0.12 | 0.00 | 83 | 1016.4 |
| 20260831142420 | 76 | 233 | 1.0 | 4.0 | 0.00 | 0.12 | 0.00 | 83 | 1016.4 |
| 20260831142023 | 76 | 245 | 1.0 | 4.0 | 0.00 | 0.12 | 0.00 | 83 | 1016.3 |
| 20260831141920 | 76 | 248 | 1.0 | 4.0 | 0.00 | 0.12 | 0.00 | 83 | 1016.3 |
| 20260831141502 | 75 | 266 | 1.0 | 3.0 | 0.00 | 0.12 | 0.00 | 83 | 1016.2 |
| 20260831141420 | 75 | 269 | 1.0 | 3.0 | 0.00 | 0.12 | 0.00 | 84 | 1016.3 |
| 20260831141023 | 75 | 269 | 0.0 | 3.0 | 0.00 | 0.13 | 0.00 | 85 | 1016.2 |
| 20260831140920 | 75 | 269 | 1.0 | 3.0 | 0.00 | 0.13 | 0.00 | 85 | 1016.3 |
| 20260831140502 | 74 | 269 | 0.0 | 3.0 | 0.00 | 0.14 | 0.00 | 85 | 1016.3 |
| 20260831140420 | 74 | 269 | 0.0 | 3.0 | 0.00 | 0.14 | 0.00 | 85 | 1016.3 |
| 20260831140002 | 74 | 269 | 0.0 | 3.0 | 0.00 | 0.14 | 0.00 | 86 | 1016.3 |
| 20260831135920 | 74 | 269 | 0.0 | 3.0 | 0.00 | 0.14 | 0.00 | 86 | 1016.2 |
| 20260831135502 | 74 | 0 | 0.0 | 0.0 | 0.00 | 0.15 | 0.00 | 87 | 1016.2 |
| 20260831135420 | 74 | 0 | 0.0 | 0.0 | 0.00 | 0.15 | 0.00 | 87 | 1016.2 |
| 20260831135002 | 74 | 0 | 0.0 | 0.0 | 0.00 | 0.16 | 0.00 | 87 | 1016.2 |
| 20260831134920 | 74 | 0 | 0.0 | 0.0 | 0.00 | 0.16 | 0.00 | 87 | 1016.2 |
| 20260831134503 | 74 | 0 | 0.0 | 0.0 | 0.00 | 0.17 | 0.00 | 87 | 1016.3 |
| 20260831134420 | 74 | 0 | 0.0 | 0.0 | 0.00 | 0.17 | 0.00 | 87 | 1016.4 |
| 20260831134002 | 74 | 0 | 0.0 | 0.0 | 0.00 | 0.19 | 0.00 | 87 | 1016.3 |
| 20260831133920 | 74 | 0 | 0.0 | 0.0 | 0.00 | 0.19 | 0.00 | 87 | 1016.4 |
| 20260831133502 | 74 | 0 | 0.0 | 0.0 | 0.00 | 0.20 | 0.00 | 87 | 1016.3 |
| 20260831133420 | 74 | 0 | 0.0 | 0.0 | 0.00 | 0.20 | 0.00 | 87 | 1016.3 |
| 20260831133024 | 74 | 0 | 0.0 | 0.0 | 0.00 | 0.21 | 0.00 | 88 | 1016.3 |
| 20260831132920 | 74 | 0 | 0.0 | 0.0 | 0.00 | 0.22 | 0.00 | 88 | 1016.3 |
| 20260831132502 | 74 | 0 | 0.0 | 0.0 | 0.00 | 0.23 | 0.00 | 88 | 1016.2 |
| 20260831132420 | 74 | 0 | 0.0 | 0.0 | 0.00 | 0.23 | 0.00 | 88 | 1016.2 |
| 20260831132023 | 73 | 0 | 0.0 | 0.0 | 0.00 | 0.24 | 0.00 | 89 | 1016.2 |
| 20260831131919 | 73 | 0 | 0.0 | 0.0 | 0.00 | 0.24 | 0.00 | 89 | 1016.1 |
| 20260831131505 | 73 | 0 | 0.0 | 0.0 | 0.00 | 0.25 | 0.00 | 89 | 1016.1 |
| 20260831131419 | 73 | 0 | 0.0 | 0.0 | 0.00 | 0.25 | 0.00 | 89 | 1016.1 |
| 20260831131023 | 73 | 0 | 0.0 | 0.0 | 0.00 | 0.26 | 0.00 | 89 | 1016.1 |
| 20260831130919 | 73 | 0 | 0.0 | 0.0 | 0.00 | 0.26 | 0.00 | 89 | 1016.1 |
| 20260831130503 | 73 | 0 | 0.0 | 0.0 | 0.00 | 0.26 | 0.00 | 89 | 1016.0 |
| 20260831130419 | 73 | 0 | 0.0 | 0.0 | 0.00 | 0.26 | 0.00 | 89 | 1016.0 |
| 20260831130005 | 73 | 0 | 0.0 | 0.0 | 0.00 | 0.26 | 0.00 | 89 | 1016.0 |
| 20260831125919 | 73 | 0 | 0.0 | 0.0 | 0.00 | 0.26 | 0.00 | 89 | 1016.0 |
| 20260831125502 | 73 | 0 | 0.0 | 0.0 | 0.00 | 0.26 | 0.00 | 89 | 1016.0 |
| 20260831125419 | 73 | 0 | 0.0 | 0.0 | 0.00 | 0.26 | 0.00 | 89 | 1016.0 |
| 20260831125002 | 72 | 269 | 0.0 | 1.0 | 0.00 | 0.26 | 0.00 | 89 | 1016.0 |
| 20260831124919 | 72 | 269 | 0.0 | 1.0 | 0.00 | 0.26 | 0.00 | 89 | 1016.0 |
| 20260831124502 | 72 | 269 | 0.0 | 1.0 | 0.00 | 0.26 | 0.00 | 90 | 1016.0 |
| 20260831124419 | 72 | 269 | 0.0 | 1.0 | 0.00 | 0.26 | 0.00 | 90 | 1016.0 |
| 20260831124002 | 72 | 0 | 0.0 | 0.0 | 0.00 | 0.26 | 0.00 | 90 | 1016.0 |
| 20260831123919 | 72 | 0 | 0.0 | 0.0 | 0.00 | 0.26 | 0.00 | 90 | 1016.0 |
| 20260831123503 | 72 | 0 | 0.0 | 0.0 | 0.00 | 0.26 | 0.00 | 90 | 1016.0 |
| 20260831123419 | 72 | 0 | 0.0 | 0.0 | 0.00 | 0.26 | 0.00 | 90 | 1016.0 |
| 20260831123023 | 72 | 0 | 0.0 | 0.0 | 0.00 | 0.26 | 0.00 | 90 | 1016.1 |
| 20260831122919 | 72 | 0 | 0.0 | 0.0 | 0.00 | 0.26 | 0.00 | 90 | 1016.1 |
| 20260831122506 | 72 | 0 | 0.0 | 0.0 | 0.00 | 0.26 | 0.00 | 90 | 1016.0 |
| 20260831122418 | 72 | 0 | 0.0 | 0.0 | 0.00 | 0.26 | 0.00 | 90 | 1016.0 |
| 20260831122002 | 72 | 267 | 0.0 | 1.0 | 0.00 | 0.26 | 0.00 | 90 | 1016.1 |
| 20260831121918 | 72 | 267 | 0.0 | 1.0 | 0.00 | 0.26 | 0.00 | 90 | 1016.0 |
| 20260831121523 | 72 | 267 | 0.0 | 1.0 | 0.00 | 0.26 | 0.00 | 90 | 1016.1 |
| 20260831121418 | 72 | 267 | 0.0 | 1.0 | 0.00 | 0.26 | 0.00 | 90 | 1016.1 |
| 20260831121003 | 71 | 0 | 0.0 | 0.0 | 0.00 | 0.26 | 0.00 | 90 | 1016.1 |
| 20260831120918 | 71 | 0 | 0.0 | 0.0 | 0.00 | 0.26 | 0.00 | 90 | 1016.0 |
| 20260831120523 | 71 | 0 | 0.0 | 0.0 | 0.00 | 0.26 | 0.00 | 90 | 1016.1 |
| 20260831120418 | 71 | 0 | 0.0 | 0.0 | 0.00 | 0.26 | 0.00 | 90 | 1016.2 |
| 20260831120003 | 71 | 0 | 0.0 | 0.0 | 0.00 | 0.26 | 0.00 | 90 | 1016.2 |
| 20260831115918 | 71 | 0 | 0.0 | 0.0 | 0.00 | 0.26 | 0.00 | 90 | 1016.2 |
| 20260831115502 | 71 | 0 | 0.0 | 0.0 | 0.00 | 0.26 | 0.00 | 90 | 1016.1 |
| 20260831115418 | 71 | 0 | 0.0 | 0.0 | 0.00 | 0.26 | 0.00 | 90 | 1016.1 |
| 20260831115023 | 71 | 0 | 0.0 | 0.0 | 0.00 | 0.26 | 0.00 | 90 | 1016.2 |
| 20260831114918 | 71 | 0 | 0.0 | 0.0 | 0.00 | 0.26 | 0.00 | 90 | 1016.3 |
| 20260831114503 | 71 | 0 | 0.0 | 0.0 | 0.00 | 0.26 | 0.00 | 90 | 1016.2 |
| 20260831114418 | 71 | 0 | 0.0 | 0.0 | 0.00 | 0.26 | 0.00 | 90 | 1016.2 |
| 20260831114023 | 71 | 0 | 0.0 | 0.0 | 0.00 | 0.26 | 0.00 | 90 | 1016.2 |
| 20260831113918 | 71 | 0 | 0.0 | 0.0 | 0.00 | 0.26 | 0.00 | 90 | 1016.2 |
| 20260831113502 | 71 | 0 | 0.0 | 0.0 | 0.00 | 0.26 | 0.00 | 90 | 1016.3 |
| 20260831113418 | 71 | 0 | 0.0 | 0.0 | 0.00 | 0.26 | 0.00 | 90 | 1016.3 |
| 20260831113006 | 71 | 0 | 0.0 | 0.0 | 0.00 | 0.26 | 0.00 | 90 | 1016.2 |
| 20260831112918 | 71 | 0 | 0.0 | 0.0 | 0.00 | 0.26 | 0.00 | 90 | 1016.3 |
| 20260831112502 | 71 | 0 | 0.0 | 0.0 | 0.00 | 0.26 | 0.00 | 90 | 1016.2 |
| 20260831112418 | 71 | 0 | 0.0 | 0.0 | 0.00 | 0.26 | 0.00 | 90 | 1016.1 |
| 20260831112002 | 71 | 0 | 0.0 | 0.0 | 0.00 | 0.26 | 0.00 | 90 | 1016.2 |
| 20260831111917 | 71 | 0 | 0.0 | 0.0 | 0.00 | 0.26 | 0.00 | 90 | 1016.2 |
| 20260831111506 | 71 | 0 | 0.0 | 0.0 | 0.00 | 0.26 | 0.00 | 90 | 1016.1 |
| 20260831111417 | 71 | 0 | 0.0 | 0.0 | 0.00 | 0.26 | 0.00 | 90 | 1016.1 |
| 20260831111003 | 71 | 0 | 0.0 | 0.0 | 0.00 | 0.26 | 0.00 | 90 | 1016.1 |
| 20260831110917 | 71 | 0 | 0.0 | 0.0 | 0.00 | 0.26 | 0.00 | 90 | 1016.1 |
| 20260831110502 | 71 | 0 | 0.0 | 0.0 | 0.00 | 0.26 | 0.00 | 90 | 1016.1 |
| 20260831110417 | 71 | 0 | 0.0 | 0.0 | 0.00 | 0.26 | 0.00 | 90 | 1016.1 |
| 20260831110005 | 71 | 0 | 0.0 | 0.0 | 0.00 | 0.26 | 0.00 | 90 | 1016.1 |
| 20260831105917 | 71 | 0 | 0.0 | 0.0 | 0.00 | 0.26 | 0.00 | 90 | 1016.2 |
| 20260831105502 | 71 | 0 | 0.0 | 0.0 | 0.00 | 0.26 | 0.00 | 90 | 1016.2 |
| 20260831105417 | 71 | 0 | 0.0 | 0.0 | 0.00 | 0.26 | 0.00 | 90 | 1016.2 |
| 20260831105024 | 71 | 0 | 0.0 | 0.0 | 0.00 | 0.26 | 0.00 | 90 | 1016.2 |
| 20260831104917 | 71 | 0 | 0.0 | 0.0 | 0.00 | 0.26 | 0.00 | 90 | 1016.1 |
| 20260831104524 | 71 | 0 | 0.0 | 0.0 | 0.00 | 0.26 | 0.00 | 90 | 1016.1 |
| 20260831104417 | 71 | 0 | 0.0 | 0.0 | 0.00 | 0.26 | 0.00 | 90 | 1016.1 |
| 20260831104002 | 71 | 0 | 0.0 | 0.0 | 0.00 | 0.27 | 0.00 | 90 | 1016.0 |
| 20260831103917 | 71 | 0 | 0.0 | 0.0 | 0.00 | 0.27 | 0.00 | 90 | 1016.0 |
| 20260831103502 | 71 | 0 | 0.0 | 0.0 | 0.00 | 0.27 | 0.00 | 90 | 1016.0 |
| 20260831103417 | 71 | 0 | 0.0 | 0.0 | 0.00 | 0.27 | 0.00 | 90 | 1016.0 |
| 20260831103003 | 71 | 0 | 0.0 | 0.0 | 0.00 | 0.27 | 0.00 | 90 | 1016.0 |
| 20260831102917 | 71 | 0 | 0.0 | 0.0 | 0.00 | 0.27 | 0.00 | 90 | 1016.0 |
| 20260831102503 | 71 | 0 | 0.0 | 0.0 | 0.00 | 0.27 | 0.00 | 90 | 1016.0 |
| 20260831102417 | 71 | 0 | 0.0 | 0.0 | 0.00 | 0.27 | 0.00 | 90 | 1016.0 |
| 20260831102002 | 71 | 0 | 0.0 | 0.0 | 0.00 | 0.27 | 0.00 | 90 | 1016.0 |
| 20260831101917 | 71 | 0 | 0.0 | 0.0 | 0.00 | 0.27 | 0.00 | 90 | 1016.0 |
| 20260831101502 | 71 | 0 | 0.0 | 0.0 | 0.00 | 0.27 | 0.00 | 90 | 1016.0 |
| 20260831101417 | 71 | 0 | 0.0 | 0.0 | 0.00 | 0.27 | 0.00 | 90 | 1016.0 |
| 20260831101003 | 71 | 0 | 0.0 | 0.0 | 0.00 | 0.27 | 0.00 | 90 | 1016.1 |
| 20260831100916 | 71 | 0 | 0.0 | 0.0 | 0.00 | 0.27 | 0.00 | 90 | 1016.1 |
| 20260831100505 | 71 | 0 | 0.0 | 0.0 | 0.00 | 0.27 | 0.00 | 90 | 1016.0 |
| 20260831100416 | 71 | 0 | 0.0 | 0.0 | 0.00 | 0.27 | 0.00 | 90 | 1016.0 |
| 20260831100002 | 71 | 0 | 0.0 | 0.0 | 0.00 | 0.27 | 0.00 | 90 | 1016.0 |
| 20260831095916 | 71 | 0 | 0.0 | 0.0 | 0.00 | 0.28 | 0.00 | 90 | 1016.0 |
| 20260831095524 | 71 | 0 | 0.0 | 0.0 | 0.00 | 0.28 | 0.00 | 90 | 1015.9 |
| 20260831095416 | 71 | 0 | 0.0 | 0.0 | 0.00 | 0.28 | 0.00 | 90 | 1016.0 |
| 20260831095006 | 71 | 0 | 0.0 | 0.0 | 0.00 | 0.28 | 0.00 | 89 | 1015.8 |
| 20260831094916 | 71 | 0 | 0.0 | 0.0 | 0.00 | 0.28 | 0.00 | 89 | 1015.8 |
| 20260831094503 | 71 | 0 | 0.0 | 0.0 | 0.00 | 0.28 | 0.00 | 89 | 1015.9 |
| 20260831094416 | 71 | 0 | 0.0 | 0.0 | 0.00 | 0.28 | 0.00 | 89 | 1015.9 |
| 20260831094006 | 71 | 0 | 0.0 | 0.0 | 0.00 | 0.28 | 0.00 | 89 | 1016.0 |
| 20260831093916 | 71 | 0 | 0.0 | 0.0 | 0.00 | 0.28 | 0.00 | 89 | 1016.0 |
| 20260831093523 | 71 | 0 | 0.0 | 0.0 | 0.00 | 0.28 | 0.00 | 89 | 1016.1 |
| 20260831093416 | 71 | 0 | 0.0 | 0.0 | 0.00 | 0.28 | 0.00 | 89 | 1016.0 |
| 20260831093003 | 71 | 0 | 0.0 | 0.0 | 0.00 | 0.28 | 0.00 | 89 | 1016.1 |
| 20260831092916 | 71 | 0 | 0.0 | 0.0 | 0.00 | 0.28 | 0.00 | 89 | 1016.1 |
| 20260831092524 | 71 | 0 | 0.0 | 0.0 | 0.00 | 0.28 | 0.00 | 89 | 1016.0 |
| 20260831092416 | 71 | 0 | 0.0 | 0.0 | 0.00 | 0.28 | 0.00 | 89 | 1016.0 |
| 20260831092002 | 71 | 0 | 0.0 | 0.0 | 0.00 | 0.28 | 0.00 | 89 | 1016.1 |
| 20260831091916 | 71 | 0 | 0.0 | 0.0 | 0.00 | 0.28 | 0.00 | 89 | 1016.2 |
| 20260831091502 | 71 | 0 | 0.0 | 0.0 | 0.00 | 0.28 | 0.00 | 89 | 1016.2 |
| 20260831091416 | 71 | 0 | 0.0 | 0.0 | 0.00 | 0.28 | 0.00 | 89 | 1016.2 |
| 20260831091003 | 71 | 0 | 0.0 | 0.0 | 0.00 | 0.28 | 0.00 | 89 | 1016.0 |
| 20260831090916 | 71 | 0 | 0.0 | 0.0 | 0.00 | 0.28 | 0.00 | 89 | 1016.0 |
| 20260831090503 | 71 | 0 | 0.0 | 0.0 | 0.00 | 0.28 | 0.00 | 89 | 1016.0 |
| 20260831090415 | 71 | 0 | 0.0 | 0.0 | 0.00 | 0.28 | 0.00 | 89 | 1016.0 |
| 20260831090002 | 71 | 0 | 0.0 | 0.0 | 0.00 | 0.28 | 0.00 | 88 | 1015.9 |
| 20260831085915 | 71 | 0 | 0.0 | 0.0 | 0.00 | 0.28 | 0.00 | 88 | 1015.9 |
| 20260831085523 | 71 | 0 | 0.0 | 0.0 | 0.00 | 0.28 | 0.00 | 88 | 1015.7 |
| 20260831085415 | 71 | 0 | 0.0 | 0.0 | 0.00 | 0.28 | 0.00 | 88 | 1015.7 |
| 20260831085002 | 71 | 0 | 0.0 | 0.0 | 0.00 | 0.28 | 0.00 | 88 | 1015.7 |
| 20260831084915 | 71 | 0 | 0.0 | 0.0 | 0.00 | 0.28 | 0.00 | 88 | 1015.7 |
| 20260831084503 | 71 | 0 | 0.0 | 0.0 | 0.00 | 0.28 | 0.00 | 88 | 1015.7 |
| 20260831084415 | 71 | 0 | 0.0 | 0.0 | 0.00 | 0.28 | 0.00 | 88 | 1015.6 |
| 20260831084003 | 71 | 0 | 0.0 | 0.0 | 0.00 | 0.28 | 0.00 | 88 | 1015.6 |
| 20260831083915 | 71 | 0 | 0.0 | 0.0 | 0.00 | 0.28 | 0.00 | 88 | 1015.6 |
| 20260831083506 | 71 | 0 | 0.0 | 0.0 | 0.00 | 0.28 | 0.00 | 88 | 1015.5 |
| 20260831083415 | 71 | 0 | 0.0 | 0.0 | 0.00 | 0.28 | 0.00 | 88 | 1015.6 |
| 20260831083002 | 71 | 0 | 0.0 | 0.0 | 0.00 | 0.28 | 0.00 | 88 | 1015.6 |
| 20260831082915 | 71 | 0 | 0.0 | 0.0 | 0.00 | 0.28 | 0.00 | 88 | 1015.5 |
| 20260831082523 | 71 | 0 | 0.0 | 0.0 | 0.00 | 0.28 | 0.00 | 88 | 1015.6 |
| 20260831082415 | 71 | 0 | 0.0 | 0.0 | 0.00 | 0.28 | 0.00 | 88 | 1015.6 |
| 20260831082003 | 71 | 0 | 0.0 | 0.0 | 0.00 | 0.28 | 0.00 | 88 | 1015.6 |
| 20260831081915 | 71 | 0 | 0.0 | 0.0 | 0.00 | 0.28 | 0.00 | 88 | 1015.6 |
| 20260831081503 | 71 | 0 | 0.0 | 0.0 | 0.00 | 0.28 | 0.00 | 88 | 1015.6 |
| 20260831081415 | 72 | 0 | 0.0 | 0.0 | 0.00 | 0.28 | 0.00 | 88 | 1015.6 |
| 20260831081027 | 71 | 0 | 0.0 | 0.0 | 0.00 | 0.28 | 0.00 | 88 | 1015.6 |
| 20260831080915 | 71 | 0 | 0.0 | 0.0 | 0.00 | 0.28 | 0.00 | 88 | 1015.6 |
| 20260831080524 | 71 | 0 | 0.0 | 0.0 | 0.00 | 0.28 | 0.00 | 88 | 1015.7 |
| 20260831080415 | 71 | 0 | 0.0 | 0.0 | 0.00 | 0.28 | 0.00 | 88 | 1015.7 |
| 20260831080003 | 71 | 0 | 0.0 | 0.0 | 0.00 | 0.28 | 0.00 | 88 | 1015.6 |
| 20260831075915 | 71 | 0 | 0.0 | 0.0 | 0.00 | 0.28 | 0.00 | 88 | 1015.6 |
| 20260831075503 | 71 | 0 | 0.0 | 0.0 | 0.00 | 0.28 | 0.00 | 88 | 1015.8 |
| 20260831075415 | 71 | 0 | 0.0 | 0.0 | 0.00 | 0.28 | 0.00 | 88 | 1015.8 |
| 20260831075003 | 71 | 0 | 0.0 | 0.0 | 0.00 | 0.28 | 0.00 | 88 | 1015.8 |
| 20260831074914 | 71 | 0 | 0.0 | 0.0 | 0.00 | 0.28 | 0.00 | 88 | 1015.8 |
| 20260831074505 | 71 | 0 | 0.0 | 0.0 | 0.00 | 0.28 | 0.00 | 88 | 1015.8 |
| 20260831074414 | 71 | 0 | 0.0 | 0.0 | 0.00 | 0.28 | 0.00 | 88 | 1015.8 |
| 20260831074003 | 71 | 0 | 0.0 | 0.0 | 0.00 | 0.28 | 0.00 | 88 | 1015.8 |
| 20260831073914 | 71 | 0 | 0.0 | 0.0 | 0.00 | 0.28 | 0.00 | 88 | 1015.8 |
| 20260831073503 | 71 | 0 | 0.0 | 0.0 | 0.00 | 0.28 | 0.00 | 88 | 1016.0 |
| 20260831073414 | 71 | 0 | 0.0 | 0.0 | 0.00 | 0.28 | 0.00 | 88 | 1015.9 |
| 20260831073003 | 71 | 0 | 0.0 | 0.0 | 0.00 | 0.28 | 0.00 | 88 | 1016.0 |
| 20260831072914 | 71 | 0 | 0.0 | 0.0 | 0.00 | 0.28 | 0.00 | 88 | 1016.0 |
| 20260831072503 | 71 | 0 | 0.0 | 0.0 | 0.00 | 0.28 | 0.00 | 88 | 1016.0 |
| 20260831072414 | 71 | 0 | 0.0 | 0.0 | 0.00 | 0.28 | 0.00 | 88 | 1015.9 |
| 20260831072002 | 71 | 0 | 0.0 | 0.0 | 0.00 | 0.28 | 0.00 | 88 | 1015.9 |
| 20260831071914 | 71 | 0 | 0.0 | 0.0 | 0.00 | 0.28 | 0.00 | 88 | 1015.9 |